Location: A�n Tadlesse
(35.0351°N, 0.5353°E)
Time: 02:11:38
(UTC+00:00)

CZ-4 R/B - Pass Details

Date: 21 October 2019
Orbit: 530 x 601 km, 97.8° (Epoch: 13 November)

Event Time Altitude Azimuth Distance (km) Brightness Sun altitude
Rises 18:15:54 0° 164° (SSE) 2,793 4.8 -13.0°
Reaches altitude 10° 18:18:02 10° 164° (SSE) 1,906 3.9 -13.4°
Maximum altitude 18:22:11 81° 76° (ENE) 606 1.4 -14.2°
Drops below altitude 10° 18:26:25 10° 350° (N) 1,944 4.2 -15.1°
Sets 18:28:36 0° 350° (N) 2,853 5.1 -15.6°
